KDAY Airport Diagram

We have created a template for each of the higher traffic airports in the vZID airspace. They include KCMH, KCRW, KCVG, KDAY, KIND, KLEX and KSDF. You wil find usefull information including the airport diagram, weather, and specific airport procedures.

KDAY Weather

[Source: ADDS]
METAR
KDAY 180156Z 22006KT 1/2SM R06L/1800V2200FT FG VV003 02/02 A2997 RMK AO2 RAE02 SLP158 P0000 T00220017 =
KDAY 172337Z 1800/1824 17005KT 1SM -DZ BR OVC004 FM180200 24004KT 1/4SM -DZ FG OVC002 FM180500 28006KT 1/2SM FG OVC002 FM180700 29007KT 1SM BR OVC003 FM181400 29005KT P6SM OVC006 FM181900 08004KT P6SM OVC008
TAF
KDAY 172337Z 1800/1824 17005KT 1SM -DZ BR OVC004 FM180200 24004KT 1/4SM -DZ FG OVC002 FM180500 28006KT 1/2SM FG OVC002 FM180700 29007KT 1SM BR OVC003 FM181400 29005KT P6SM OVC006 FM181900 08004KT P6SM OVC008 =

KDAY Operations

Approach/Departure operations for KDAY were consolidated into the Columbus TRACON quite some time back. We have recently made that change here at ZID. When arriving/departing the Dayton Airport and airports in the surrounding area, contact with the Columbus APP/DEP controller, if online, should be expected.

Calm Wind Configuration is runways 24L/R. This configuration is used up to and including 10kts.

Runway 24L typically departs south and east, except larger aircraft requiring a longer runway.

Runway 24R typically departs north and west.

 

JSN Epic template designed by JoomlaShine.com